Time,TemperatureF,DewpointF,PressureIn,WindDirection,WindDirectionDegrees,WindSpeedMPH,WindSpeedGustMPH,Humidity,HourlyPrecipIn,Conditions,Clouds,dailyrainin,SoftwareType,DateUTC
2013-04-01 00:00:00,55.2,53.2,29.84,West,277,0.0,0.0,93,0.00,RA,,0.00,WeatherDisplay:10.37,2013-04-01 04:00:00,
2013-04-01 00:05:00,55.2,53.2,29.84,West,277,0.0,0.0,93,0.00,RA,,0.00,WeatherDisplay:10.37,2013-04-01 04:05:00,
2013-04-01 00:10:00,55.2,53.2,29.84,West,276,0.0,0.0,93,0.00,CLR,,0.00,WeatherDisplay:10.37,2013-04-01 04:10:00,
2013-04-01 00:12:00,55.2,53.2,29.84,West,277,0.0,0.0,93,0.00,CLR,,0.00,WeatherDisplay:10.37,2013-04-01 04:12:00,
2013-04-01 00:17:00,55.1,53.1,29.85,West,277,0.0,0.0,93,0.00,CLR,,0.00,WeatherDisplay:10.37,2013-04-01 04:17:00,
2013-04-01 00:22:00,55.2,53.2,29.85,West,277,0.0,0.0,93,0.00,CLR,,0.00,WeatherDisplay:10.37,2013-04-01 04:22:00,
2013-04-01 00:27:00,55.2,53.2,29.84,West,276,0.0,0.0,93,0.00,CLR,,0.00,WeatherDisplay:10.37,2013-04-01 04:27:00,
2013-04-01 00:32:00,55.1,53.1,29.85,West,276,0.0,0.0,93,0.00,CLR,,0.00,WeatherDisplay:10.37,2013-04-01 04:32:00,
2013-04-01 00:37:00,55.0,53.0,29.85,West,276,0.0,0.0,93,0.00,CLR,,0.00,WeatherDisplay:10.37,2013-04-01 04:37:00,
2013-04-01 00:42:00,54.9,52.9,29.85,NNW,338,4.6,4.6,93,0.00,CLR,,0.00,WeatherDisplay:10.37,2013-04-01 04:42:00,
2013-04-01 00:48:00,54.8,52.8,29.85,NNW,338,3.5,3.5,93,0.00,CLR,,0.00,WeatherDisplay:10.37,2013-04-01 04:48:00,
2013-04-01 00:53:00,54.9,52.9,29.85,NNW,337,2.3,2.3,93,0.00,CLR,,0.00,WeatherDisplay:10.37,2013-04-01 04:53:00,
2013-04-01 00:58:00,54.9,53.2,29.85,NNW,337,0.0,0.0,94,0.00,CLR,,0.00,WeatherDisplay:10.37,2013-04-01 04:58:00,
2013-04-01 01:03:00,54.9,53.2,29.84,NNW,338,0.0,0.0,94,0.00,CLR,,0.00,WeatherDisplay:10.37,2013-04-01 05:03:00,
2013-04-01 01:08:00,54.8,53.1,29.85,NNW,338,0.0,0.0,94,0.00,CLR,,0.00,WeatherDisplay:10.37,2013-04-01 05:08:00,
2013-04-01 01:13:00,54.8,53.1,29.84,NNW,338,0.0,0.0,94,0.00,CLR,,0.00,WeatherDisplay:10.37,2013-04-01 05:13:00,
2013-04-01 01:18:00,54.8,53.1,29.84,NNW,337,0.0,0.0,94,0.00,CLR,,0.00,WeatherDisplay:10.37,2013-04-01 05:18:00,
2013-04-01 01:23:00,54.7,53.0,29.84,NNW,337,0.0,0.0,94,0.00,CLR,,0.00,WeatherDisplay:10.37,2013-04-01 05:23:00,
2013-04-01 01:28:00,54.7,53.0,29.85,NNW,338,0.0,0.0,94,0.00,CLR,,0.00,WeatherDisplay:10.37,2013-04-01 05:28:00,
2013-04-01 01:33:00,54.7,53.0,29.85,NNW,338,0.0,0.0,94,0.00,CLR,,0.00,WeatherDisplay:10.37,2013-04-01 05:33:00,
2013-04-01 01:38:00,54.6,52.9,29.84,NNW,337,0.0,0.0,94,0.00,CLR,,0.00,WeatherDisplay:10.37,2013-04-01 05:38:00,
2013-04-01 01:43:00,54.6,52.9,29.84,NNW,338,2.0,2.0,94,0.00,CLR,,0.00,WeatherDisplay:10.37,2013-04-01 05:43:00,
2013-04-01 01:48:00,54.6,52.9,29.84,NNW,338,1.2,1.2,94,0.00,CLR,,0.00,WeatherDisplay:10.37,2013-04-01 05:48:00,
2013-04-01 01:53:00,54.6,52.9,29.85,NNW,338,0.0,0.0,94,0.00,CLR,,0.00,WeatherDisplay:10.37,2013-04-01 05:53:00,
2013-04-01 01:58:00,54.5,52.8,29.85,NNW,337,0.0,0.0,94,0.00,CLR,,0.00,WeatherDisplay:10.37,2013-04-01 05:58:00,
2013-04-01 02:03:00,54.4,52.7,29.84,NNW,338,0.0,0.0,94,0.00,CLR,,0.00,WeatherDisplay:10.37,2013-04-01 06:03:00,
2013-04-01 02:08:00,54.3,52.6,29.84,NNW,338,0.0,0.0,94,0.00,CLR,,0.00,WeatherDisplay:10.37,2013-04-01 06:08:00,
2013-04-01 02:13:00,54.2,52.5,29.84,NNW,338,0.0,0.0,94,0.00,CLR,,0.00,WeatherDisplay:10.37,2013-04-01 06:13:00,
2013-04-01 02:18:00,54.1,52.4,29.84,NNW,338,0.0,0.0,94,0.00,CLR,,0.00,WeatherDisplay:10.37,2013-04-01 06:18:00,
2013-04-01 02:23:00,54.1,52.4,29.84,NNW,338,0.0,0.0,94,0.00,CLR,,0.00,WeatherDisplay:10.37,2013-04-01 06:23:00,
2013-04-01 02:28:00,54.1,52.4,29.84,NNW,338,0.0,0.0,94,0.00,CLR,,0.00,WeatherDisplay:10.37,2013-04-01 06:28:00,
2013-04-01 02:33:00,54.1,52.4,29.84,NNW,337,0.0,0.0,94,0.00,CLR,,0.00,WeatherDisplay:10.37,2013-04-01 06:33:00,
2013-04-01 02:38:00,54.1,52.4,29.84,NNW,338,0.0,0.0,94,0.00,CLR,,0.00,WeatherDisplay:10.37,2013-04-01 06:38:00,
2013-04-01 02:43:00,54.0,52.3,29.84,NNW,338,0.0,0.0,94,0.00,CLR,,0.00,WeatherDisplay:10.37,2013-04-01 06:43:00,
2013-04-01 02:48:00,53.9,52.2,29.84,NNW,338,0.0,0.0,94,0.00,CLR,,0.00,WeatherDisplay:10.37,2013-04-01 06:48:00,
2013-04-01 02:53:00,53.9,52.2,29.84,NNW,337,0.0,0.0,94,0.00,CLR,,0.00,WeatherDisplay:10.37,2013-04-01 06:53:00,
2013-04-01 02:58:00,53.8,52.1,29.84,NNW,338,0.0,0.0,94,0.00,CLR,,0.00,WeatherDisplay:10.37,2013-04-01 06:58:00,
2013-04-01 03:03:00,53.8,52.1,29.84,NNW,338,0.0,0.0,94,0.00,CLR,,0.00,WeatherDisplay:10.37,2013-04-01 07:03:00,
2013-04-01 03:08:00,53.8,52.1,29.84,NNW,338,0.0,0.0,94,0.00,CLR,,0.00,WeatherDisplay:10.37,2013-04-01 07:08:00,
2013-04-01 03:13:00,53.7,52.0,29.83,NNW,338,0.0,0.0,94,0.00,CLR,,0.00,WeatherDisplay:10.37,2013-04-01 07:13:00,
2013-04-01 03:18:00,53.6,51.9,29.83,NNW,338,0.0,0.0,94,0.00,CLR,,0.00,WeatherDisplay:10.37,2013-04-01 07:18:00,
2013-04-01 03:23:00,53.5,51.8,29.84,NNW,338,0.0,0.0,94,0.00,CLR,,0.00,WeatherDisplay:10.37,2013-04-01 07:23:00,
2013-04-01 03:28:00,53.5,51.8,29.84,NNW,338,0.0,0.0,94,0.00,CLR,,0.00,WeatherDisplay:10.37,2013-04-01 07:28:00,
2013-04-01 03:33:00,53.3,51.6,29.84,NNW,337,0.0,0.0,94,0.00,CLR,,0.00,WeatherDisplay:10.37,2013-04-01 07:33:00,
2013-04-01 03:38:00,53.3,51.6,29.84,NNW,337,0.0,0.0,94,0.00,CLR,,0.00,WeatherDisplay:10.37,2013-04-01 07:38:00,
2013-04-01 03:43:00,53.3,51.6,29.84,NNW,338,0.0,0.0,94,0.00,CLR,,0.00,WeatherDisplay:10.37,2013-04-01 07:43:00,
2013-04-01 03:48:00,53.3,51.6,29.84,NNW,337,0.0,0.0,94,0.00,CLR,,0.00,WeatherDisplay:10.37,2013-04-01 07:48:00,
2013-04-01 03:53:00,53.3,51.6,29.84,NNW,337,0.0,0.0,94,0.00,CLR,,0.00,WeatherDisplay:10.37,2013-04-01 07:53:00,
2013-04-01 03:58:00,53.3,51.6,29.84,NNW,337,0.0,0.0,94,0.00,CLR,,0.00,WeatherDisplay:10.37,2013-04-01 07:58:00,
2013-04-01 04:03:00,53.2,51.5,29.84,NNW,337,0.0,0.0,94,0.00,CLR,,0.00,WeatherDisplay:10.37,2013-04-01 08:03:00,
2013-04-01 04:08:00,53.2,51.5,29.84,NNW,338,0.0,0.0,94,0.00,CLR,,0.00,WeatherDisplay:10.37,2013-04-01 08:08:00,
2013-04-01 04:13:00,53.2,51.5,29.84,NNW,338,3.5,3.5,94,0.00,CLR,,0.00,WeatherDisplay:10.37,2013-04-01 08:13:00,
2013-04-01 04:18:00,53.2,51.5,29.84,NNW,338,2.3,2.3,94,0.00,CLR,,0.00,WeatherDisplay:10.37,2013-04-01 08:18:00,
2013-04-01 04:23:00,53.3,51.9,29.84,NNW,337,1.2,0.0,95,0.00,CLR,,0.00,WeatherDisplay:10.37,2013-04-01 08:23:00,
2013-04-01 04:28:00,53.2,51.8,29.84,NNW,338,0.0,0.0,95,0.00,CLR,,0.00,WeatherDisplay:10.37,2013-04-01 08:28:00,
2013-04-01 04:33:00,53.1,51.4,29.84,NNW,337,0.0,0.0,94,0.00,CLR,,0.00,WeatherDisplay:10.37,2013-04-01 08:33:00,
2013-04-01 04:38:00,53.0,51.3,29.85,NNW,338,0.0,0.0,94,0.00,CLR,,0.00,WeatherDisplay:10.37,2013-04-01 08:38:00,
2013-04-01 04:43:00,52.9,51.2,29.85,NNW,338,0.0,0.0,94,0.00,CLR,,0.00,WeatherDisplay:10.37,2013-04-01 08:43:00,
2013-04-01 04:48:00,52.9,51.2,29.85,NNW,337,2.3,2.3,94,0.00,CLR,,0.00,WeatherDisplay:10.37,2013-04-01 08:48:00,
2013-04-01 04:53:00,52.9,51.2,29.85,NNW,338,0.0,0.0,94,0.00,CLR,,0.00,WeatherDisplay:10.37,2013-04-01 08:53:00,
2013-04-01 04:58:00,52.9,51.2,29.85,NNW,337,0.0,0.0,94,0.00,CLR,,0.00,WeatherDisplay:10.37,2013-04-01 08:58:00,
2013-04-01 05:03:00,52.9,51.5,29.85,NNW,338,0.0,0.0,95,0.00,CLR,,0.00,WeatherDisplay:10.37,2013-04-01 09:03:00,
2013-04-01 05:08:00,52.9,51.5,29.85,NNW,338,0.0,0.0,95,0.00,CLR,,0.00,WeatherDisplay:10.37,2013-04-01 09:08:00,
2013-04-01 05:13:00,53.0,51.6,29.85,NNW,338,0.0,0.0,95,0.00,CLR,,0.00,WeatherDisplay:10.37,2013-04-01 09:13:00,
2013-04-01 05:18:00,53.0,51.6,29.85,NNW,337,0.0,0.0,95,0.00,CLR,,0.00,WeatherDisplay:10.37,2013-04-01 09:18:00,
2013-04-01 05:23:00,53.0,51.6,29.85,NNW,337,0.0,0.0,95,0.00,CLR,,0.00,WeatherDisplay:10.37,2013-04-01 09:23:00,
2013-04-01 05:28:00,53.0,51.6,29.85,NNW,338,0.0,0.0,95,0.01,RA,,0.01,WeatherDisplay:10.37,2013-04-01 09:28:00,
2013-04-01 05:33:00,52.9,51.5,29.85,NNW,337,0.0,0.0,95,0.01,RA,,0.01,WeatherDisplay:10.37,2013-04-01 09:33:00,
2013-04-01 05:38:00,52.9,51.5,29.85,NNW,338,0.0,0.0,95,0.01,,,0.01,WeatherDisplay:10.37,2013-04-01 09:38:00,
2013-04-01 05:43:00,52.9,51.5,29.85,NNW,337,0.0,0.0,95,0.01,CLR,,0.01,WeatherDisplay:10.37,2013-04-01 09:43:00,
2013-04-01 05:49:00,53.1,51.7,29.85,NNW,337,0.0,0.0,95,0.01,CLR,,0.01,WeatherDisplay:10.37,2013-04-01 09:49:00,
2013-04-01 05:54:00,52.8,51.4,29.86,NNW,338,0.0,0.0,95,0.01,CLR,,0.01,WeatherDisplay:10.37,2013-04-01 09:54:00,
2013-04-01 05:59:00,52.3,50.9,29.86,NNW,338,0.0,0.0,95,0.01,CLR,,0.01,WeatherDisplay:10.37,2013-04-01 09:59:00,
2013-04-01 06:04:00,52.1,50.4,29.86,NNW,338,0.0,0.0,94,0.01,CLR,,0.01,WeatherDisplay:10.37,2013-04-01 10:04:00,
2013-04-01 06:09:00,51.7,50.0,29.86,NNW,337,0.0,0.0,94,0.01,CLR,,0.01,WeatherDisplay:10.37,2013-04-01 10:09:00,
2013-04-01 06:14:00,51.5,49.8,29.86,NNW,337,0.0,0.0,94,0.01,CLR,,0.01,WeatherDisplay:10.37,2013-04-01 10:14:00,
2013-04-01 06:19:00,51.2,49.5,29.86,NNW,337,0.0,0.0,94,0.01,CLR,,0.01,WeatherDisplay:10.37,2013-04-01 10:19:00,
2013-04-01 06:24:00,51.0,49.3,29.87,NNW,337,0.0,0.0,94,0.01,CLR,,0.01,WeatherDisplay:10.37,2013-04-01 10:24:00,
2013-04-01 06:29:00,51.0,49.3,29.87,NNW,337,0.0,0.0,94,0.00,CLR,,0.01,WeatherDisplay:10.37,2013-04-01 10:29:00,
2013-04-01 06:34:00,50.9,49.2,29.87,NNW,337,0.0,0.0,94,0.00,CLR,,0.01,WeatherDisplay:10.37,2013-04-01 10:34:00,
2013-04-01 06:39:00,50.8,49.1,29.87,NNW,338,0.0,0.0,94,0.00,CLR,,0.01,WeatherDisplay:10.37,2013-04-01 10:39:00,
2013-04-01 06:44:00,50.6,49.2,29.87,NNW,338,0.0,0.0,95,0.00,CLR,,0.01,WeatherDisplay:10.37,2013-04-01 10:44:00,
2013-04-01 06:49:00,50.5,49.1,29.87,NNW,338,0.0,0.0,95,0.00,CLR,,0.01,WeatherDisplay:10.37,2013-04-01 10:49:00,
2013-04-01 06:54:00,50.3,48.6,29.87,NNW,337,0.0,0.0,94,0.00,CLR,,0.01,WeatherDisplay:10.37,2013-04-01 10:54:00,
2013-04-01 06:59:00,50.2,48.5,29.88,NNW,338,0.0,0.0,94,0.00,CLR,,0.01,WeatherDisplay:10.37,2013-04-01 10:59:00,
2013-04-01 07:04:00,50.2,48.5,29.88,NNW,338,0.0,0.0,94,0.00,CLR,,0.01,WeatherDisplay:10.37,2013-04-01 11:04:00,
2013-04-01 07:09:00,50.2,48.8,29.88,NNW,338,0.0,0.0,95,0.00,CLR,,0.01,WeatherDisplay:10.37,2013-04-01 11:09:00,
2013-04-01 07:14:00,50.3,48.9,29.89,NNW,337,0.0,0.0,95,0.00,CLR,,0.01,WeatherDisplay:10.37,2013-04-01 11:14:00,
2013-04-01 07:19:00,50.3,48.9,29.89,NNW,337,0.0,0.0,95,0.00,CLR,,0.01,WeatherDisplay:10.37,2013-04-01 11:19:00,
2013-04-01 07:24:00,50.4,49.0,29.89,NNW,337,0.0,0.0,95,0.00,CLR,,0.01,WeatherDisplay:10.37,2013-04-01 11:24:00,
2013-04-01 07:29:00,50.4,49.0,29.89,NNW,337,0.0,0.0,95,0.00,CLR,,0.01,WeatherDisplay:10.37,2013-04-01 11:29:00,
2013-04-01 07:34:00,50.4,49.0,29.90,NNW,337,3.5,3.5,95,0.00,CLR,,0.01,WeatherDisplay:10.37,2013-04-01 11:34:00,
2013-04-01 07:39:00,50.1,48.7,29.90,SSW,195,3.5,3.5,95,0.00,CLR,,0.01,WeatherDisplay:10.37,2013-04-01 11:39:00,
2013-04-01 07:44:00,50.0,48.6,29.90,SSW,195,2.3,2.3,95,0.00,CLR,,0.01,WeatherDisplay:10.37,2013-04-01 11:44:00,
2013-04-01 07:49:00,49.9,48.5,29.90,West,279,3.5,3.5,95,0.00,CLR,,0.01,WeatherDisplay:10.37,2013-04-01 11:49:00,
2013-04-01 07:54:00,49.8,48.4,29.90,West,279,0.0,0.0,95,0.00,CLR,,0.01,WeatherDisplay:10.37,2013-04-01 11:54:00,
2013-04-01 07:59:00,49.8,48.4,29.90,West,279,0.0,0.0,95,0.00,CLR,,0.01,WeatherDisplay:10.37,2013-04-01 11:59:00,
2013-04-01 08:04:00,49.8,48.4,29.90,West,279,0.0,0.0,95,0.00,CLR,,0.01,WeatherDisplay:10.37,2013-04-01 12:04:00,
2013-04-01 08:09:00,49.8,48.4,29.91,West,279,0.0,0.0,95,0.00,CLR,,0.01,WeatherDisplay:10.37,2013-04-01 12:09:00,
2013-04-01 08:14:00,50.0,48.6,29.91,West,279,0.0,0.0,95,0.00,CLR,,0.01,WeatherDisplay:10.37,2013-04-01 12:14:00,
2013-04-01 08:19:00,50.4,49.0,29.91,West,279,0.0,0.0,95,0.00,CLR,,0.01,WeatherDisplay:10.37,2013-04-01 12:19:00,
2013-04-01 08:25:00,50.9,49.5,29.91,West,279,0.0,0.0,95,0.00,CLR,,0.01,WeatherDisplay:10.37,2013-04-01 12:25:00,
2013-04-01 08:30:00,51.2,49.8,29.91,West,279,0.0,0.0,95,0.00,CLR,,0.01,WeatherDisplay:10.37,2013-04-01 12:30:00,
2013-04-01 08:35:00,51.5,50.1,29.91,West,279,0.0,0.0,95,0.00,CLR,,0.01,WeatherDisplay:10.37,2013-04-01 12:35:00,
2013-04-01 08:40:00,51.9,50.5,29.91,West,279,0.0,0.0,95,0.00,CLR,,0.01,WeatherDisplay:10.37,2013-04-01 12:40:00,
2013-04-01 08:45:00,52.0,50.6,29.91,SE,130,0.0,0.0,95,0.00,CLR,,0.01,WeatherDisplay:10.37,2013-04-01 12:45:00,
2013-04-01 08:50:00,52.0,50.6,29.91,West,267,0.0,0.0,95,0.00,CLR,,0.01,WeatherDisplay:10.37,2013-04-01 12:50:00,
2013-04-01 08:55:00,52.1,50.7,29.91,West,267,0.0,0.0,95,0.00,CLR,,0.01,WeatherDisplay:10.37,2013-04-01 12:55:00,
2013-04-01 09:00:00,52.6,50.9,29.91,West,267,0.0,0.0,94,0.00,CLR,,0.01,WeatherDisplay:10.37,2013-04-01 13:00:00,
2013-04-01 09:05:00,53.1,51.1,29.91,West,267,0.0,0.0,93,0.00,CLR,,0.01,WeatherDisplay:10.37,2013-04-01 13:05:00,
2013-04-01 09:10:00,53.7,50.8,29.91,West,267,0.0,0.0,90,0.00,CLR,,0.01,WeatherDisplay:10.37,2013-04-01 13:10:00,
2013-04-01 09:15:00,54.2,50.4,29.91,West,267,0.0,0.0,87,0.00,CLR,,0.01,WeatherDisplay:10.37,2013-04-01 13:15:00,
2013-04-01 09:20:00,54.8,50.1,29.91,West,267,0.0,0.0,84,0.00,CLR,,0.01,WeatherDisplay:10.37,2013-04-01 13:20:00,
2013-04-01 09:25:00,55.4,50.0,29.91,West,267,2.3,2.3,82,0.00,CLR,,0.01,WeatherDisplay:10.37,2013-04-01 13:25:00,
2013-04-01 09:30:00,55.9,49.8,29.91,West,267,3.5,3.5,80,0.00,CLR,,0.01,WeatherDisplay:10.37,2013-04-01 13:30:00,
2013-04-01 09:35:00,56.4,50.0,29.91,West,267,3.5,3.5,79,0.00,CLR,,0.01,WeatherDisplay:10.37,2013-04-01 13:35:00,
2013-04-01 09:40:00,56.9,50.1,29.91,WNW,283,5.0,5.0,78,0.00,CLR,,0.01,WeatherDisplay:10.37,2013-04-01 13:40:00,
2013-04-01 09:45:00,57.3,49.1,29.91,West,271,6.9,6.9,74,0.00,CLR,,0.01,WeatherDisplay:10.37,2013-04-01 13:45:00,
2013-04-01 09:50:00,57.6,48.6,29.91,West,259,4.6,4.6,72,0.00,CLR,,0.01,WeatherDisplay:10.37,2013-04-01 13:50:00,
2013-04-01 09:55:00,57.8,48.5,29.91,West,269,9.2,9.2,71,0.00,CLR,,0.01,WeatherDisplay:10.37,2013-04-01 13:55:00,
2013-04-01 10:00:00,58.1,48.7,29.90,West,260,5.8,5.8,71,0.00,CLR,,0.01,WeatherDisplay:10.37,2013-04-01 14:00:00,
2013-04-01 10:05:00,58.5,48.4,29.91,West,267,5.8,5.8,69,0.00,CLR,,0.01,WeatherDisplay:10.37,2013-04-01 14:05:00,
2013-04-01 10:10:00,58.7,47.8,29.91,West,261,10.4,10.4,67,0.00,CLR,,0.01,WeatherDisplay:10.37,2013-04-01 14:10:00,
2013-04-01 10:15:00,59.0,48.4,29.91,WNW,295,6.0,6.0,68,0.00,CLR,,0.01,WeatherDisplay:10.37,2013-04-01 14:15:00,
2013-04-01 10:20:00,59.0,46.0,29.91,WNW,287,6.9,6.9,62,0.00,CLR,,0.01,WeatherDisplay:10.37,2013-04-01 14:20:00,
2013-04-01 10:25:00,59.5,46.0,29.90,WNW,296,8.1,8.1,61,0.00,CLR,,0.01,WeatherDisplay:10.37,2013-04-01 14:25:00,
2013-04-01 10:30:00,59.8,45.4,29.91,WNW,288,4.6,4.6,59,0.00,CLR,,0.01,WeatherDisplay:10.37,2013-04-01 14:30:00,
2013-04-01 10:35:00,60.1,45.3,29.91,WNW,290,6.9,6.9,58,0.00,CLR,,0.01,WeatherDisplay:10.37,2013-04-01 14:35:00,
2013-04-01 10:40:00,60.5,46.1,29.91,NNW,327,3.5,4.3,59,0.00,CLR,,0.01,WeatherDisplay:10.37,2013-04-01 14:40:00,
2013-04-01 10:45:00,60.9,44.6,29.91,WNW,289,10.4,10.4,55,0.00,CLR,,0.01,WeatherDisplay:10.37,2013-04-01 14:45:00,
2013-04-01 10:50:00,61.1,46.2,29.92,WNW,296,13.0,13.0,58,0.00,CLR,,0.01,WeatherDisplay:10.37,2013-04-01 14:50:00,
2013-04-01 10:55:00,61.3,45.9,29.92,WNW,288,11.5,11.5,57,0.00,CLR,,0.01,WeatherDisplay:10.37,2013-04-01 14:55:00,
2013-04-01 11:00:00,61.5,45.2,29.91,WNW,300,10.4,10.4,55,0.00,CLR,,0.01,WeatherDisplay:10.37,2013-04-01 15:00:00,
2013-04-01 11:05:00,61.8,44.5,29.91,WNW,294,10.0,10.0,53,0.00,CLR,,0.01,WeatherDisplay:10.37,2013-04-01 15:05:00,
2013-04-01 11:10:00,62.1,44.8,29.91,WNW,283,11.5,11.5,53,0.00,CLR,,0.01,WeatherDisplay:10.37,2013-04-01 15:10:00,
2013-04-01 11:15:00,62.2,45.3,29.92,West,281,8.0,8.0,54,0.00,CLR,,0.01,WeatherDisplay:10.37,2013-04-01 15:15:00,
2013-04-01 11:20:00,62.5,44.6,29.92,West,269,11.5,11.5,52,0.00,CLR,,0.01,WeatherDisplay:10.37,2013-04-01 15:20:00,
2013-04-01 11:25:00,62.6,44.7,29.91,NNW,329,11.5,11.5,52,0.00,CLR,,0.01,WeatherDisplay:10.37,2013-04-01 15:25:00,
2013-04-01 11:30:00,62.7,44.3,29.92,NW,325,12.7,12.7,51,0.00,CLR,,0.01,WeatherDisplay:10.37,2013-04-01 15:30:00,
2013-04-01 11:35:00,62.9,44.0,29.92,WNW,296,11.5,11.5,50,0.00,CLR,,0.01,WeatherDisplay:10.37,2013-04-01 15:35:00,
2013-04-01 11:40:00,62.9,42.9,29.92,WNW,292,11.5,11.5,48,0.00,CLR,,0.01,WeatherDisplay:10.37,2013-04-01 15:40:00,
2013-04-01 11:45:00,63.1,43.1,29.91,NW,309,10.4,10.4,48,0.00,CLR,,0.01,WeatherDisplay:10.37,2013-04-01 15:45:00,
2013-04-01 11:51:00,63.5,41.8,29.91,West,272,11.5,11.5,45,0.00,CLR,,0.01,WeatherDisplay:10.37,2013-04-01 15:51:00,
2013-04-01 11:57:00,63.6,43.0,29.91,WNW,292,12.7,12.7,47,0.00,CLR,,0.01,WeatherDisplay:10.37,2013-04-01 15:57:00,
2013-04-01 12:02:00,63.7,44.7,29.91,West,280,11.5,11.5,50,0.00,CLR,,0.01,WeatherDisplay:10.37,2013-04-01 16:02:00,
2013-04-01 12:07:00,63.9,41.5,29.91,WNW,298,10.4,10.4,44,0.00,CLR,,0.01,WeatherDisplay:10.37,2013-04-01 16:07:00,
2013-04-01 12:12:00,64.2,42.4,29.91,West,279,11.5,11.5,45,0.00,CLR,,0.01,WeatherDisplay:10.37,2013-04-01 16:12:00,
2013-04-01 12:17:00,64.5,43.3,29.91,NNW,336,11.5,11.5,46,0.00,CLR,,0.01,WeatherDisplay:10.37,2013-04-01 16:17:00,
2013-04-01 12:22:00,64.8,44.1,29.91,WNW,299,11.5,11.5,47,0.00,CLR,,0.01,WeatherDisplay:10.37,2013-04-01 16:22:00,
2013-04-01 12:27:00,65.3,45.1,29.91,West,263,9.2,9.2,48,0.00,CLR,,0.01,WeatherDisplay:10.37,2013-04-01 16:27:00,
2013-04-01 12:32:00,65.4,42.3,29.91,West,275,15.0,15.0,43,0.00,CLR,,0.01,WeatherDisplay:10.37,2013-04-01 16:32:00,
2013-04-01 12:38:00,65.3,44.0,29.91,West,271,14.0,14.0,46,0.00,CLR,,0.01,WeatherDisplay:10.37,2013-04-01 16:38:00,
2013-04-01 12:43:00,65.3,44.5,29.91,WNW,288,7.0,7.0,47,0.00,CLR,,0.01,WeatherDisplay:10.37,2013-04-01 16:43:00,
2013-04-01 12:48:00,65.4,42.9,29.91,WNW,303,5.8,5.8,44,0.00,CLR,,0.01,WeatherDisplay:10.37,2013-04-01 16:48:00,
2013-04-01 12:53:00,65.7,43.8,29.90,West,276,9.2,9.2,45,0.00,CLR,,0.01,WeatherDisplay:10.37,2013-04-01 16:53:00,
2013-04-01 12:58:00,66.0,45.2,29.90,West,261,9.2,9.2,47,0.00,CLR,,0.01,WeatherDisplay:10.37,2013-04-01 16:58:00,
2013-04-01 13:03:00,66.2,44.2,29.90,NW,311,11.5,11.5,45,0.00,CLR,,0.01,WeatherDisplay:10.37,2013-04-01 17:03:00,
2013-04-01 13:08:00,66.5,43.3,29.89,WNW,295,11.5,11.5,43,0.00,CLR,,0.01,WeatherDisplay:10.37,2013-04-01 17:08:00,
2013-04-01 13:13:00,66.9,43.7,29.89,WNW,286,11.5,11.5,43,0.00,CLR,,0.01,WeatherDisplay:10.37,2013-04-01 17:13:00,
2013-04-01 13:18:00,67.0,43.8,29.89,NNW,329,13.8,13.8,43,0.00,CLR,,0.01,WeatherDisplay:10.37,2013-04-01 17:18:00,
2013-04-01 13:23:00,67.2,44.5,29.89,West,277,12.7,12.7,44,0.00,CLR,,0.01,WeatherDisplay:10.37,2013-04-01 17:23:00,
2013-04-01 13:28:00,67.2,44.5,29.89,NW,317,13.8,13.8,44,0.00,CLR,,0.01,WeatherDisplay:10.37,2013-04-01 17:28:00,
2013-04-01 13:33:00,67.3,44.0,29.89,WNW,287,19.6,19.6,43,0.00,CLR,,0.01,WeatherDisplay:10.37,2013-04-01 17:33:00,
2013-04-01 13:38:00,67.2,42.0,29.88,WNW,301,19.6,19.6,40,0.00,CLR,,0.01,WeatherDisplay:10.37,2013-04-01 17:38:00,
2013-04-01 13:43:00,67.2,42.0,29.88,West,274,18.4,18.4,40,0.00,CLR,,0.01,WeatherDisplay:10.37,2013-04-01 17:43:00,
2013-04-01 13:48:00,67.5,43.6,29.88,West,276,21.9,21.9,42,0.00,CLR,,0.01,WeatherDisplay:10.37,2013-04-01 17:48:00,
2013-04-01 13:53:00,67.1,42.0,29.89,WNW,300,21.9,21.9,40,0.00,CLR,,0.01,WeatherDisplay:10.37,2013-04-01 17:53:00,
2013-04-01 13:58:00,67.0,42.5,29.88,West,261,10.4,10.4,41,0.00,CLR,,0.01,WeatherDisplay:10.37,2013-04-01 17:58:00,
2013-04-01 14:03:00,67.1,43.2,29.88,WNW,300,18.4,18.4,42,0.00,CLR,,0.01,WeatherDisplay:10.37,2013-04-01 18:03:00,
2013-04-01 14:08:00,67.6,43.7,29.88,West,274,19.6,19.6,42,0.00,CLR,,0.01,WeatherDisplay:10.37,2013-04-01 18:08:00,
2013-04-01 14:13:00,67.7,43.8,29.88,West,276,15.0,15.0,42,0.00,CLR,,0.01,WeatherDisplay:10.37,2013-04-01 18:13:00,
2013-04-01 14:18:00,68.0,42.8,29.88,NW,309,19.6,19.6,40,0.00,CLR,,0.01,WeatherDisplay:10.37,2013-04-01 18:18:00,
2013-04-01 14:23:00,68.0,42.8,29.88,WSW,250,20.7,20.7,40,0.00,CLR,,0.01,WeatherDisplay:10.37,2013-04-01 18:23:00,
2013-04-01 14:28:00,67.9,42.0,29.88,West,277,19.6,19.6,39,0.00,CLR,,0.01,WeatherDisplay:10.37,2013-04-01 18:28:00,
2013-04-01 14:33:00,68.0,42.8,29.88,WNW,293,18.4,18.4,40,0.00,CLR,,0.01,WeatherDisplay:10.37,2013-04-01 18:33:00,
2013-04-01 14:38:00,67.8,42.6,29.88,West,275,15.0,15.0,40,0.00,CLR,,0.01,WeatherDisplay:10.37,2013-04-01 18:38:00,
2013-04-01 14:43:00,67.9,43.3,29.88,West,277,19.6,19.6,41,0.00,CLR,,0.01,WeatherDisplay:10.37,2013-04-01 18:43:00,
2013-04-01 14:48:00,68.0,44.0,29.87,WNW,285,12.7,12.7,42,0.00,CLR,,0.01,WeatherDisplay:10.37,2013-04-01 18:48:00,
2013-04-01 14:53:00,67.9,44.0,29.88,WNW,292,11.5,11.5,42,0.00,CLR,,0.01,WeatherDisplay:10.37,2013-04-01 18:53:00,
2013-04-01 14:58:00,68.2,42.9,29.88,NW,311,17.3,17.3,40,0.00,CLR,,0.01,WeatherDisplay:10.37,2013-04-01 18:58:00,
2013-04-01 15:03:00,68.3,43.0,29.88,NNW,339,19.6,19.6,40,0.00,CLR,,0.01,WeatherDisplay:10.37,2013-04-01 19:03:00,
2013-04-01 15:08:00,68.6,42.6,29.87,NW,304,16.1,16.1,39,0.00,CLR,,0.01,WeatherDisplay:10.37,2013-04-01 19:08:00,
2013-04-01 15:13:00,68.3,42.4,29.87,WNW,284,11.5,11.5,39,0.00,CLR,,0.01,WeatherDisplay:10.37,2013-04-01 19:13:00,
2013-04-01 15:18:00,68.1,42.9,29.87,WNW,296,19.6,19.6,40,0.00,CLR,,0.01,WeatherDisplay:10.37,2013-04-01 19:18:00,
2013-04-01 15:23:00,68.4,45.0,29.87,West,275,19.6,19.6,43,0.00,CLR,,0.01,WeatherDisplay:10.37,2013-04-01 19:23:00,
2013-04-01 15:28:00,68.6,43.9,29.87,NW,310,18.4,18.4,41,0.00,CLR,,0.01,WeatherDisplay:10.37,2013-04-01 19:28:00,
2013-04-01 15:33:00,68.8,43.5,29.87,NW,321,13.8,13.8,40,0.00,CLR,,0.01,WeatherDisplay:10.37,2013-04-01 19:33:00,
2013-04-01 15:38:00,68.4,42.5,29.87,WNW,284,19.0,19.0,39,0.00,CLR,,0.01,WeatherDisplay:10.37,2013-04-01 19:38:00,
2013-04-01 15:43:00,68.4,43.1,29.87,West,277,24.0,24.0,40,0.00,CLR,,0.01,WeatherDisplay:10.37,2013-04-01 19:43:00,
2013-04-01 15:48:00,68.3,43.7,29.87,WNW,300,20.7,20.7,41,0.00,CLR,,0.01,WeatherDisplay:10.37,2013-04-01 19:48:00,
2013-04-01 15:53:00,68.3,42.4,29.87,WNW,284,16.1,16.1,39,0.00,CLR,,0.01,WeatherDisplay:10.37,2013-04-01 19:53:00,
2013-04-01 15:58:00,67.5,41.7,29.87,NW,323,14.0,14.0,39,0.00,CLR,,0.01,WeatherDisplay:10.37,2013-04-01 19:58:00,
2013-04-01 16:03:00,66.9,41.8,29.87,NW,315,16.1,16.1,40,0.00,CLR,,0.01,WeatherDisplay:10.37,2013-04-01 20:03:00,
2013-04-01 16:08:00,66.7,42.2,29.88,WNW,300,24.2,24.2,41,0.00,CLR,,0.01,WeatherDisplay:10.37,2013-04-01 20:08:00,
2013-04-01 16:13:00,66.8,42.3,29.87,West,280,19.6,19.6,41,0.00,CLR,,0.01,WeatherDisplay:10.37,2013-04-01 20:13:00,
2013-04-01 16:18:00,66.6,41.5,29.87,West,272,19.6,19.6,40,0.00,CLR,,0.01,WeatherDisplay:10.37,2013-04-01 20:18:00,
2013-04-01 16:23:00,66.4,42.0,29.87,WNW,297,19.0,19.0,41,0.00,CLR,,0.01,WeatherDisplay:10.37,2013-04-01 20:23:00,
2013-04-01 16:28:00,66.9,41.8,29.87,West,276,18.4,18.4,40,0.00,CLR,,0.01,WeatherDisplay:10.37,2013-04-01 20:28:00,
2013-04-01 16:33:00,66.7,41.6,29.87,West,281,17.3,17.3,40,0.00,CLR,,0.01,WeatherDisplay:10.37,2013-04-01 20:33:00,
2013-04-01 16:38:00,66.2,41.8,29.87,NW,305,19.6,19.6,41,0.00,CLR,,0.01,WeatherDisplay:10.37,2013-04-01 20:38:00,
2013-04-01 16:43:00,66.0,42.9,29.87,WNW,283,17.3,17.3,43,0.00,CLR,,0.01,WeatherDisplay:10.37,2013-04-01 20:43:00,
2013-04-01 16:48:00,65.7,42.0,29.87,WNW,303,21.0,21.0,42,0.00,CLR,,0.01,WeatherDisplay:10.37,2013-04-01 20:48:00,
2013-04-01 16:53:00,65.4,41.7,29.87,NW,310,14.0,14.0,42,0.00,CLR,,0.01,WeatherDisplay:10.37,2013-04-01 20:53:00,
2013-04-01 16:58:00,65.4,42.3,29.87,NW,304,18.4,18.4,43,0.00,CLR,,0.01,WeatherDisplay:10.37,2013-04-01 20:58:00,
2013-04-01 17:03:00,66.1,43.5,29.87,WNW,288,16.1,16.1,44,0.00,CLR,,0.01,WeatherDisplay:10.37,2013-04-01 21:03:00,
2013-04-01 17:08:00,66.5,42.7,29.87,WNW,303,17.3,17.3,42,0.00,CLR,,0.01,WeatherDisplay:10.37,2013-04-01 21:08:00,
2013-04-01 17:13:00,66.1,42.9,29.87,WNW,295,14.0,14.0,43,0.00,CLR,,0.01,WeatherDisplay:10.37,2013-04-01 21:13:00,
2013-04-01 17:18:00,66.3,42.5,29.87,NW,312,16.1,16.1,42,0.00,CLR,,0.01,WeatherDisplay:10.37,2013-04-01 21:18:00,
2013-04-01 17:23:00,66.2,43.0,29.88,NW,306,16.1,16.1,43,0.00,CLR,,0.01,WeatherDisplay:10.37,2013-04-01 21:23:00,
2013-04-01 17:28:00,66.0,42.9,29.88,WNW,298,20.0,20.0,43,0.00,CLR,,0.01,WeatherDisplay:10.37,2013-04-01 21:28:00,
2013-04-01 17:33:00,65.7,42.6,29.88,WNW,303,21.9,21.9,43,0.00,CLR,,0.01,WeatherDisplay:10.37,2013-04-01 21:33:00,
2013-04-01 17:38:00,65.8,43.3,29.87,WNW,292,18.4,18.4,44,0.00,CLR,,0.01,WeatherDisplay:10.37,2013-04-01 21:38:00,
2013-04-01 17:43:00,65.7,43.2,29.87,NW,309,19.6,19.6,44,0.00,CLR,,0.01,WeatherDisplay:10.37,2013-04-01 21:43:00,
2013-04-01 17:48:00,65.5,42.4,29.87,WNW,298,19.6,19.6,43,0.00,CLR,,0.01,WeatherDisplay:10.37,2013-04-01 21:48:00,
2013-04-01 17:53:00,65.4,43.5,29.87,NW,306,18.4,18.4,45,0.00,CLR,,0.01,WeatherDisplay:10.37,2013-04-01 21:53:00,
2013-04-01 17:58:00,65.3,42.2,29.87,NW,313,17.3,17.3,43,0.00,CLR,,0.01,WeatherDisplay:10.37,2013-04-01 21:58:00,
2013-04-01 18:03:00,64.5,40.9,29.88,WNW,295,14.0,14.0,42,0.00,CLR,,0.01,WeatherDisplay:10.37,2013-04-01 22:03:00,
2013-04-01 18:08:00,64.0,41.6,29.88,NW,304,16.1,16.1,44,0.00,CLR,,0.01,WeatherDisplay:10.37,2013-04-01 22:08:00,
2013-04-01 18:13:00,64.0,41.6,29.88,WNW,300,16.1,16.1,44,0.00,CLR,,0.01,WeatherDisplay:10.37,2013-04-01 22:13:00,
2013-04-01 18:18:00,64.2,42.4,29.87,West,263,13.8,13.8,45,0.00,CLR,,0.01,WeatherDisplay:10.37,2013-04-01 22:18:00,
2013-04-01 18:23:00,64.0,42.2,29.87,WNW,300,17.3,17.3,45,0.00,CLR,,0.01,WeatherDisplay:10.37,2013-04-01 22:23:00,
2013-04-01 18:28:00,63.7,42.5,29.88,WNW,290,19.6,19.6,46,0.00,CLR,,0.01,WeatherDisplay:10.37,2013-04-01 22:28:00,
2013-04-01 18:33:00,63.6,43.0,29.88,WNW,288,17.3,17.3,47,0.00,CLR,,0.01,WeatherDisplay:10.37,2013-04-01 22:33:00,
2013-04-01 18:38:00,63.6,43.0,29.88,WNW,299,15.0,15.0,47,0.00,CLR,,0.01,WeatherDisplay:10.37,2013-04-01 22:38:00,
2013-04-01 18:43:00,63.3,42.7,29.88,WNW,294,13.8,13.8,47,0.00,CLR,,0.01,WeatherDisplay:10.37,2013-04-01 22:43:00,
2013-04-01 18:48:00,63.1,43.1,29.88,WNW,296,14.0,14.0,48,0.00,CLR,,0.01,WeatherDisplay:10.37,2013-04-01 22:48:00,
2013-04-01 18:53:00,62.9,43.4,29.89,WNW,299,15.0,15.0,49,0.00,CLR,,0.01,WeatherDisplay:10.37,2013-04-01 22:53:00,
2013-04-01 18:58:00,62.8,42.8,29.89,WNW,298,13.8,13.8,48,0.00,CLR,,0.01,WeatherDisplay:10.37,2013-04-01 22:58:00,
2013-04-01 19:03:00,62.7,43.3,29.89,WNW,290,10.4,10.4,49,0.00,CLR,,0.01,WeatherDisplay:10.37,2013-04-01 23:03:00,
2013-04-01 19:08:00,62.6,42.6,29.89,WNW,303,11.5,11.5,48,0.00,CLR,,0.01,WeatherDisplay:10.37,2013-04-01 23:08:00,
2013-04-01 19:13:00,62.4,43.5,29.89,WNW,292,9.2,9.2,50,0.00,CLR,,0.01,WeatherDisplay:10.37,2013-04-01 23:13:00,
2013-04-01 19:18:00,62.1,43.2,29.90,WNW,292,10.4,10.4,50,0.00,CLR,,0.01,WeatherDisplay:10.37,2013-04-01 23:18:00,
2013-04-01 19:23:00,61.8,43.0,29.90,WNW,283,8.1,8.1,50,0.00,CLR,,0.01,WeatherDisplay:10.37,2013-04-01 23:23:00,
2013-04-01 19:28:00,61.4,42.6,29.90,WNW,295,12.7,12.7,50,0.00,CLR,,0.01,WeatherDisplay:10.37,2013-04-01 23:28:00,
2013-04-01 19:33:00,61.1,42.8,29.90,WNW,291,9.0,9.0,51,0.00,CLR,,0.01,WeatherDisplay:10.37,2013-04-01 23:33:00,
2013-04-01 19:38:00,60.9,42.6,29.90,WNW,293,12.0,12.0,51,0.00,CLR,,0.01,WeatherDisplay:10.37,2013-04-01 23:38:00,
2013-04-01 19:43:00,60.7,41.9,29.90,WNW,286,13.8,13.8,50,0.00,CLR,,0.01,WeatherDisplay:10.37,2013-04-01 23:43:00,
2013-04-01 19:48:00,60.6,42.4,29.90,WNW,283,6.9,6.9,51,0.00,CLR,,0.01,WeatherDisplay:10.37,2013-04-01 23:48:00,
2013-04-01 19:53:00,60.3,42.1,29.90,WNW,286,11.5,11.5,51,0.00,CLR,,0.01,WeatherDisplay:10.37,2013-04-01 23:53:00,
2013-04-01 19:58:00,60.1,41.9,29.90,WNW,298,12.7,12.7,51,0.00,CLR,,0.01,WeatherDisplay:10.37,2013-04-01 23:58:00,
2013-04-01 20:03:00,60.2,41.5,29.90,West,278,16.1,16.1,50,0.00,CLR,,0.01,WeatherDisplay:10.37,2013-04-02 00:03:00,
2013-04-01 20:08:00,60.2,41.5,29.90,WNW,288,12.7,12.7,50,0.00,CLR,,0.01,WeatherDisplay:10.37,2013-04-02 00:08:00,
2013-04-01 20:14:00,60.2,41.5,29.90,NW,313,12.7,12.7,50,0.00,CLR,,0.01,WeatherDisplay:10.37,2013-04-02 00:14:00,
2013-04-01 20:19:00,60.2,41.5,29.90,WNW,288,11.5,11.5,50,0.00,CLR,,0.01,WeatherDisplay:10.37,2013-04-02 00:19:00,
2013-04-01 20:24:00,60.2,41.0,29.91,WNW,290,13.8,13.8,49,0.00,CLR,,0.01,WeatherDisplay:10.37,2013-04-02 00:24:00,
2013-04-01 20:29:00,60.2,41.5,29.91,WNW,289,10.4,10.4,50,0.00,CLR,,0.01,WeatherDisplay:10.37,2013-04-02 00:29:00,
2013-04-01 20:34:00,60.1,41.4,29.91,NW,313,6.0,6.0,50,0.00,CLR,,0.01,WeatherDisplay:10.37,2013-04-02 00:34:00,
2013-04-01 20:39:00,60.0,41.3,29.91,WNW,302,10.4,10.4,50,0.00,CLR,,0.01,WeatherDisplay:10.37,2013-04-02 00:39:00,
2013-04-01 20:44:00,59.9,40.7,29.91,NW,307,15.0,15.0,49,0.00,CLR,,0.01,WeatherDisplay:10.37,2013-04-02 00:44:00,
2013-04-01 20:49:00,59.8,41.1,29.91,WNW,300,11.5,11.5,50,0.00,CLR,,0.01,WeatherDisplay:10.37,2013-04-02 00:49:00,
2013-04-01 20:54:00,59.6,40.9,29.91,NW,310,6.9,6.9,50,0.00,CLR,,0.01,WeatherDisplay:10.37,2013-04-02 00:54:00,
2013-04-01 20:59:00,59.3,40.7,29.91,West,279,10.4,10.4,50,0.00,CLR,,0.01,WeatherDisplay:10.37,2013-04-02 00:59:00,
2013-04-01 21:04:00,59.0,40.4,29.91,NW,311,6.9,6.9,50,0.00,CLR,,0.01,WeatherDisplay:10.37,2013-04-02 01:04:00,
2013-04-01 21:09:00,59.0,39.9,29.91,West,279,9.2,9.2,49,0.00,CLR,,0.01,WeatherDisplay:10.37,2013-04-02 01:09:00,
2013-04-01 21:14:00,59.0,40.4,29.92,WNW,294,6.0,6.0,50,0.00,CLR,,0.01,WeatherDisplay:10.37,2013-04-02 01:14:00,
2013-04-01 21:19:00,59.0,40.4,29.92,NW,307,5.8,5.8,50,0.00,CLR,,0.01,WeatherDisplay:10.37,2013-04-02 01:19:00,
2013-04-01 21:24:00,58.7,40.1,29.92,WNW,296,5.8,5.8,50,0.00,CLR,,0.01,WeatherDisplay:10.37,2013-04-02 01:24:00,
2013-04-01 21:29:00,58.4,39.8,29.92,WNW,301,4.6,4.6,50,0.00,CLR,,0.01,WeatherDisplay:10.37,2013-04-02 01:29:00,
2013-04-01 21:34:00,58.1,39.5,29.93,NW,306,4.6,4.6,50,0.00,CLR,,0.01,WeatherDisplay:10.37,2013-04-02 01:34:00,
2013-04-01 21:39:00,57.8,39.3,29.93,NW,309,5.8,5.8,50,0.00,CLR,,0.01,WeatherDisplay:10.37,2013-04-02 01:39:00,
2013-04-01 21:44:00,57.7,39.2,29.93,NNW,333,12.7,12.7,50,0.00,CLR,,0.01,WeatherDisplay:10.37,2013-04-02 01:44:00,
2013-04-01 21:49:00,57.6,39.6,29.93,NW,311,5.0,5.0,51,0.00,CLR,,0.01,WeatherDisplay:10.37,2013-04-02 01:49:00,
2013-04-01 21:54:00,57.3,39.3,29.93,NW,314,5.0,5.0,51,0.00,CLR,,0.01,WeatherDisplay:10.37,2013-04-02 01:54:00,
2013-04-01 21:59:00,57.0,39.0,29.93,NW,317,5.8,5.8,51,0.00,CLR,,0.01,WeatherDisplay:10.37,2013-04-02 01:59:00,
2013-04-01 22:04:00,56.6,38.7,29.93,NW,309,6.9,6.9,51,0.00,CLR,,0.01,WeatherDisplay:10.37,2013-04-02 02:04:00,
2013-04-01 22:09:00,56.3,38.4,29.93,NW,316,9.2,9.2,51,0.00,CLR,,0.01,WeatherDisplay:10.37,2013-04-02 02:09:00,
2013-04-01 22:14:00,56.2,38.3,29.93,WNW,301,10.4,10.4,51,0.00,CLR,,0.01,WeatherDisplay:10.37,2013-04-02 02:14:00,
2013-04-01 22:19:00,56.0,38.6,29.94,NW,309,11.5,11.5,52,0.00,CLR,,0.01,WeatherDisplay:10.37,2013-04-02 02:19:00,
2013-04-01 22:24:00,55.9,38.0,29.94,WNW,288,9.2,9.2,51,0.00,CLR,,0.01,WeatherDisplay:10.37,2013-04-02 02:24:00,
2013-04-01 22:29:00,55.9,38.0,29.94,WNW,290,9.2,9.2,51,0.00,CLR,,0.01,WeatherDisplay:10.37,2013-04-02 02:29:00,
2013-04-01 22:34:00,55.8,37.9,29.94,NW,307,11.5,11.5,51,0.00,CLR,,0.01,WeatherDisplay:10.37,2013-04-02 02:34:00,
2013-04-01 22:39:00,56.0,38.1,29.94,NW,315,9.2,9.2,51,0.00,CLR,,0.01,WeatherDisplay:10.37,2013-04-02 02:39:00,
2013-04-01 22:44:00,56.1,37.7,29.94,NW,312,5.8,5.8,50,0.00,CLR,,0.01,WeatherDisplay:10.37,2013-04-02 02:44:00,
2013-04-01 22:49:00,56.0,37.6,29.94,NW,311,5.8,5.8,50,0.00,CLR,,0.01,WeatherDisplay:10.37,2013-04-02 02:49:00,
2013-04-01 22:54:00,55.9,38.0,29.95,NW,311,6.0,6.0,51,0.00,CLR,,0.01,WeatherDisplay:10.37,2013-04-02 02:54:00,
2013-04-01 22:59:00,55.7,37.8,29.95,NW,311,5.8,5.8,51,0.00,CLR,,0.01,WeatherDisplay:10.37,2013-04-02 02:59:00,
2013-04-01 23:04:00,55.5,37.7,29.95,NW,313,4.0,4.0,51,0.00,CLR,,0.01,WeatherDisplay:10.37,2013-04-02 03:04:00,
2013-04-01 23:09:00,55.4,37.6,29.95,WNW,298,12.0,12.0,51,0.00,CLR,,0.01,WeatherDisplay:10.37,2013-04-02 03:09:00,
2013-04-01 23:14:00,55.7,37.8,29.95,WNW,302,9.2,9.2,51,0.00,CLR,,0.01,WeatherDisplay:10.37,2013-04-02 03:14:00,
2013-04-01 23:19:00,55.6,37.2,29.95,NW,323,6.9,6.9,50,0.00,CLR,,0.01,WeatherDisplay:10.37,2013-04-02 03:19:00,
2013-04-01 23:24:00,55.4,37.6,29.95,NW,318,9.2,9.2,51,0.00,CLR,,0.01,WeatherDisplay:10.37,2013-04-02 03:24:00,
2013-04-01 23:29:00,55.3,37.5,29.95,WNW,300,4.6,4.6,51,0.00,CLR,,0.01,WeatherDisplay:10.37,2013-04-02 03:29:00,
2013-04-01 23:34:00,55.2,37.4,29.96,NW,309,4.6,4.6,51,0.00,CLR,,0.01,WeatherDisplay:10.37,2013-04-02 03:34:00,
2013-04-01 23:39:00,55.0,37.7,29.96,NW,323,7.0,7.0,52,0.00,CLR,,0.01,WeatherDisplay:10.37,2013-04-02 03:39:00,
2013-04-01 23:44:00,54.9,37.6,29.96,NW,322,10.4,10.4,52,0.00,CLR,,0.01,WeatherDisplay:10.37,2013-04-02 03:44:00,
2013-04-01 23:49:00,55.0,37.2,29.96,NW,318,11.5,11.5,51,0.00,CLR,,0.01,WeatherDisplay:10.37,2013-04-02 03:49:00,
2013-04-01 23:54:00,55.2,37.4,29.96,NW,316,9.2,9.2,51,0.00,CLR,,0.01,WeatherDisplay:10.37,2013-04-02 03:54:00,
2013-04-01 23:59:00,55.6,37.2,29.96,WNW,284,17.3,17.3,50,0.00,CLR,,0.01,WeatherDisplay:10.37,2013-04-02 03:59:00,